Satellite-Ground Cal/Val Site Overpasses Predictions

Prediction of Satellite NPP Overpassing Cal/Val Site: Antarctic Dome C

Ground Cal/Val Site Location: Latitude: -75.10, Longitude: 123.35; Satellite-Ground Site NADIR distance within 100 km.

Table of predicted overpasses for the next 14.0 days since TLE Epoch: 8/14/2020
Interval Starting Time Ending Time Minimum Distance Time Minimum Distance (km)
1 08/17/2020 14:54:54 08/17/2020 14:55:23 08/17/2020 14:55:08 21.60
2 08/18/2020 14:36:13 08/18/2020 14:36:27 08/18/2020 14:36:20 85.32
3 08/19/2020 07:37:45 08/19/2020 07:38:12 08/19/2020 07:37:58 34.35
4 08/20/2020 07:19:00 08/20/2020 07:19:19 08/20/2020 07:19:10 75.82
5 08/22/2020 15:01:16 08/22/2020 15:01:39 08/22/2020 15:01:27 58.83
6 08/23/2020 14:42:25 08/23/2020 14:42:50 08/23/2020 14:42:38 50.32
7 08/24/2020 07:44:07 08/24/2020 07:44:28 08/24/2020 07:44:17 69.61
8 08/25/2020 07:25:15 08/25/2020 07:25:42 08/25/2020 07:25:29 38.30
9 08/27/2020 15:07:43 08/27/2020 15:07:50 08/27/2020 15:07:47 96.60
